User: anonymous   Login
Location: Ciudad Delicias
(28.2170°N, 105.4670°W)
Time: 05:29:24
(UTC-07:00)
Language:

ETS-7 - Orbit

View from above orbital plane
View from above orbital plane
View from above satellite
View from above satellite

Ground track
Ground track

The orbit data is extracted from the following two-line orbital elements,

1 25064U 97074B   15150.15253146  .00036737  00000-0  25483-3 0  9994
2 25064 034.9506 125.9258 0003891 212.2554 209.7861 15.73341355975326
Epoch (UTC): 30 May 2015 03:39:38
Eccentricity: 0.0003891
inclination: 34.9506°
perigee height: 347 km
apogee height: 352 km
right ascension of ascending node: 125.9258°
argument of perigee: 212.2554°
revolutions per day: 15.73341355
mean anomaly at epoch: 209.7861°
orbit number at epoch: 97532

The dashed part of the orbit path shows where the satellite is in the earth's shadow,  

DLR